Dewpoint
17 19 17 15 9 6 11 13 12 4 8 13 25 32 32 32 31 30 29 29 29 29 29 30 30 31 32 33 35 37 36 36 37 39 41 46 51 49 48 48 47 46 45 43
15 15 14 10 13 15 16 17 17 17 16 21 34 33 29 29 28 28 28 28 29 29 29 29 30 30 31 31 33 34 35 35 35 35 36 36 39 41 41 40 40 39 38 38
6 15 9 -2 12 26 26 27 27 19 18 31 29 27 26 27 27 27 27 27 28 28 28 29 29 30 30 30 31 32 32 33 34 34 33 33 33 35 36 36 36 35 34 34
11 10 -13 17 29 29 27 28 28 29 31 33 27 27 27 28 27 27 27 27 28 28 28 29 29 29 29 30 30 29 30 31 32 33 33 33 32 31 32 32 32 32 32 32
8 13 10 19 26 24 24 23 27 27 29 27 27 26 25 28 28 28 28 29 29 29 29 29 28 27 27 27 28 28 28 29 30 31 31 31 31 30 30 29 29 30 30 31
18 13 9 21 24 28 29 20 26 26 27 27 27 25 21 27 28 27 28 27 27 28 28 28 28 27 26 25 25 25 26 27 29 29 29 28 29 29 30 29 29 29 29 29
17 16 18 24 26 29 19 18 25 25 25 29 22 24 26 26 25 26 26 26 26 27 26 26 26 26 24 24 23 25 26 26 26 27 28 28 28 28 28 28 28 27 27 28
19 17 15 26 24 19 24 27 26 25 24 23 23 22 22 22 22 22 23 23 24 25 25 26 25 24 23 23 24 24 24 24 24 25 25 26 26 26 27 26 26 26 25 25
21 19 27 27 26 27 28 26 25 24 24 22 20 19 19 19 19 19 21 21 23 23 23 24 26 25 23 24 24 23 23 23 23 23 24 24 23 23 23 24 25 25 24 24
23 24 25 27 27 27 26 24 24 23 22 21 18 18 17 17 17 17 18 19 20 20 20 21 23 24 27 25 24 23 22 22 22 23 23 23 23 23 23 23 23 23 24 24
23 25 26 26 27 27 26 25 23 23 22 21 19 18 18 17 17 17 17 18 18 18 19 19 21 21 24 26 23 21 21 21 21 21 22 22 24 24 23 26 25 24 25 25
19 25 23 25 28 28 25 24 24 21 20 21 19 18 18 17 18 17 16 16 16 16 16 17 18 19 20 24 25 24 20 19 19 20 20 20 20 20 25 26 26 27 27 26
24 27 26 27 27 26 24 23 23 21 20 19 20 19 18 18 18 17 16 15 15 14 14 14 15 16 17 20 22 22 23 23 20 18 19 19 18 18 17 20 22 25 25 24
28 27 25 27 24 25 23 22 22 22 20 20 19 19 17 16 16 15 16 16 14 13 11 11 13 14 14 17 19 19 19 20 17 16 16 16 16 16 16 15 15 15 18 20
29 29 27 26 24 23 23 21 19 18 18 18 17 17 16 15 14 14 14 11 11 10 9 10 12 13 13 15 16 16 17 18 18 17 16 15 14 14 14 14 13 12 12 11
29 28 27 25 22 21 21 20 19 18 18 17 16 15 15 13 12 11 10 9 8 8 8 8 10 11 13 14 14 14 14 16 18 17 15 14 13 12 12 12 11 10 9 10
24 23 25 23 22 21 20 19 18 18 17 16 15 13 12 10 9 8 6 5 4 3 2 5 9 10 12 14 15 13 13 14 16 15 13 10 7 10 11 11 10 9 9 9
25 24 23 22 21 19 18 18 18 17 15 14 11 9 9 9 9 9 8 4 4 4 3 1 10 10 11 14 15 15 14 15 14 14 13 9 9 11 11 11 10 9 8 7
25 23 22 20 19 17 16 15 13 12 10 9 9 9 6 5 6 7 4 5 5 6 6 3 9 11 10 12 13 13 14 13 12 12 13 12 9 10 9 9 9 8 8 7
19 18 17 16 15 14 12 11 10 8 6 7 6 7 7 6 4 4 3 4 5 7 5 3 5 10 10 9 10 11 11 10 11 10 9 9 8 7 9 9 8 7 6 5
15 14 12 11 10 9 8 7 6 6 4 4 6 7 7 4 4 5 9 8 5 8 4 0 3 8 9 8 8 8 9 9 9 9 8 7 8 8 8 8 7 6 5 4
11 10 9 9 9 8 6 6 6 6 4 3 3 4 5 6 5 6 6 8 7 7 2 -0 -1 2 7 7 7 6 7 8 7 8 8 8 6 6 6 5 6 6 5 4
10 10 9 9 9 6 4 4 4 3 5 7 8 7 7 8 9 7 6 8 9 8 7 3 0 -3 3 4 3 4 6 6 5 5 4 4 5 6 6 6 5 5 5 4
11 11 10 8 6 6 1 4 4 6 7 7 7 5 7 10 9 10 10 9 5 2 3 4 4 2 -2 0 4 4 3 4 4 1 -0 -1 2 1 2 3 4 3 3 2
12 11 10 9 9 9 10 8 9 10 12 11 11 10 8 7 8 8 8 6 4 5 4 1 2 3 2 0 -0 1 2 3 3 2 3 1 1 3 4 4 4 4 2 2
14 12 10 11 12 13 14 14 12 13 13 13 13 11 10 11 12 11 12 10 6 6 5 5 4 3 2 2 2 2 2 3 4 4 3 3 1 1 2 2 2 2 3 3
15 14 12 14 16 16 17 16 14 12 12 11 5 5 6 7 10 10 12 11 8 8 8 7 7 7 7 6 6 5 4 4 4 4 3 2 2 4 3 3 3 2 -0 2
Wind_Speed
6 3 2 6 14 17 12 17 13 26 24 20 9 2 8 8 9 12 15 19 20 22 23 24 26 25 24 24 24 21 22 25 22 20 22 15 14 19 18 17 15 13 13 11
4 8 10 13 18 15 19 21 25 29 31 14 7 10 9 10 11 13 15 17 18 20 22 23 24 25 24 25 25 22 23 21 19 23 22 20 20 20 21 16 16 16 15 13
2 1 7 11 4 1 9 13 17 25 23 11 8 9 7 8 9 13 14 17 18 19 19 20 21 21 22 22 23 24 23 22 17 21 21 28 23 16 20 18 17 19 17 15
4 3 4 0 6 1 11 9 13 10 6 12 15 13 10 9 11 12 13 13 16 16 18 19 20 21 19 21 23 24 25 26 24 23 21 27 19 22 20 20 20 18 17 16
2 2 9 5 6 8 6 8 10 10 4 14 18 19 15 11 13 13 11 11 13 15 15 17 20 20 19 22 22 23 24 25 26 23 20 17 20 21 20 21 22 21 18 18
4 2 4 3 16 13 11 7 11 9 6 10 12 4 5 9 14 15 14 12 14 15 15 17 19 17 18 21 21 23 22 21 20 22 21 28 20 16 18 18 20 19 21 21
8 4 3 12 17 12 3 6 10 10 8 8 8 10 13 14 16 13 12 14 13 15 16 18 16 15 19 19 22 18 17 18 21 21 21 19 21 23 17 20 20 19 21 21
5 5 5 18 4 6 8 7 8 9 10 19 18 17 16 15 14 14 14 14 15 14 15 16 18 15 17 20 16 16 17 19 20 20 19 18 19 18 18 21 21 19 19 21
2 2 5 6 7 8 10 7 9 9 13 17 15 14 13 13 13 13 14 13 13 13 14 17 18 17 18 16 16 17 19 20 20 20 19 19 21 20 19 19 17 17 18 18
4 3 5 7 9 11 12 11 12 13 15 14 15 13 14 13 13 14 13 14 13 15 16 17 17 18 16 14 14 16 18 18 17 19 19 18 18 17 18 18 17 16 15 15
4 5 6 10 8 7 10 11 13 14 14 13 14 13 11 11 13 13 13 14 14 14 14 16 16 16 17 16 13 14 14 14 14 15 16 18 21 17 18 20 16 14 13 12
2 1 6 5 7 7 9 10 10 12 14 13 13 12 11 12 12 13 14 14 16 16 16 16 16 18 19 17 14 12 13 12 12 11 12 13 14 17 29 24 23 24 22 16
3 9 14 11 10 9 11 11 12 14 12 13 11 11 11 10 11 12 12 14 15 14 13 15 16 17 18 16 15 15 13 11 10 10 10 11 11 11 13 15 25 26 24 23
8 11 9 5 7 9 12 12 13 12 11 11 10 9 9 10 10 11 11 9 11 13 16 16 16 17 16 14 14 15 14 13 11 11 11 12 11 11 11 12 13 13 20 21
7 3 10 15 13 11 10 9 9 8 9 10 9 8 8 9 9 8 8 9 10 13 14 16 17 18 17 13 14 14 13 11 10 11 11 11 11 11 11 11 11 11 10 13
11 12 12 12 11 9 8 8 8 6 6 6 6 7 8 9 9 9 11 12 11 13 13 15 16 16 15 13 12 12 12 10 9 9 9 10 10 10 9 10 11 11 11 9
13 8 10 13 11 8 6 6 7 8 8 8 7 7 8 9 10 10 11 9 11 14 13 15 16 15 15 14 10 9 10 9 8 8 8 8 8 8 8 9 10 11 11 10
4 9 8 12 12 11 8 8 7 8 7 7 8 10 10 10 8 5 8 7 8 13 17 16 13 14 15 15 12 10 10 9 9 7 6 7 7 7 8 9 8 9 8 9
11 13 12 12 11 12 10 9 8 10 9 9 10 10 8 6 5 3 4 8 11 12 13 14 13 13 14 14 12 10 10 9 8 7 6 4 5 5 7 7 8 8 7 7
13 12 13 12 10 11 12 10 11 11 8 10 11 8 8 6 4 4 3 6 5 4 7 10 11 12 12 13 13 10 10 9 7 6 5 4 3 4 5 6 6 6 6 6
11 12 13 14 14 12 12 10 11 10 7 6 7 6 4 2 2 1 3 6 5 4 6 8 9 10 10 10 10 10 10 10 10 8 5 3 2 3 4 5 5 4 5 4
12 13 14 14 14 12 7 6 8 8 7 8 6 4 2 2 2 3 1 2 3 3 3 5 7 7 8 8 8 8 8 7 7 8 8 7 4 1 1 2 4 5 6 6
13 13 12 12 11 10 7 6 5 5 6 3 2 1 0 2 2 4 8 3 2 2 2 3 6 6 7 5 5 6 5 5 4 5 5 5 4 2 2 1 1 2 4 4
13 12 10 8 10 8 7 4 3 2 2 1 2 3 2 3 4 4 5 4 2 3 4 4 4 5 4 3 4 5 5 5 4 4 5 6 5 5 5 5 5 5 5 5
13 11 10 10 7 6 4 5 4 3 3 3 4 4 5 6 7 3 3 5 5 5 8 8 8 8 7 7 7 8 8 7 7 6 7 7 6 6 6 6 8 9 9 9
11 10 10 8 6 5 6 5 3 2 4 6 6 6 7 6 8 9 6 5 6 8 11 12 12 12 12 13 13 13 12 11 10 10 10 11 10 9 9 9 9 9 10 10
8 8 7 5 4 3 5 6 3 2 1 1 1 3 7 8 6 5 6 7 8 9 10 11 10 10 11 12 13 14 14 13 13 13 12 12 12 12 11 11 11 11 9 9
Wind_Direction
227 244 241 252 272 278 248 247 247 271 255 265 286 335 50 31 16 32 5 9 4 360 359 2 359 357 360 3 3 3 23 27 21 23 28 23 110 112 105 105 103 103 107 94
290 253 246 266 256 245 244 257 256 256 263 280 109 109 69 46 26 23 16 6 5 5 2 4 2 358 360 4 5 11 26 27 27 34 35 32 17 85 91 88 90 87 76 76
263 52 313 287 280 188 306 310 283 253 250 163 144 103 77 63 47 35 23 11 10 6 5 2 0 0 4 5 10 17 21 25 29 53 49 37 28 52 74 77 79 77 72 69
269 298 267 105 70 316 321 350 345 330 311 157 134 108 84 55 65 41 31 15 16 11 9 6 5 7 10 17 20 22 23 26 27 39 46 54 35 40 53 64 65 67 64 65
271 249 301 219 32 345 338 307 11 342 101 128 131 113 67 60 64 55 37 20 19 14 13 14 17 8 16 28 24 24 24 28 25 36 43 57 51 46 50 57 61 63 59 58
168 226 266 16 321 316 280 250 16 355 318 179 185 138 86 66 62 52 45 28 19 13 17 17 19 15 22 31 32 27 16 22 30 37 40 49 46 50 50 60 66 66 62 56
237 274 291 348 318 309 201 337 18 7 12 101 82 76 89 66 58 50 43 31 19 21 26 22 16 25 32 26 31 22 26 28 30 35 43 48 51 48 46 60 60 58 64 58
194 223 257 0 356 44 314 36 39 47 60 83 80 76 72 62 54 43 37 29 21 25 23 19 23 27 33 34 18 26 34 37 36 35 41 41 52 52 52 59 60 52 60 59
42 115 20 25 34 30 32 47 40 61 61 76 82 75 71 63 54 43 33 28 26 28 24 19 15 30 32 24 24 28 35 36 34 37 38 39 48 46 47 47 53 57 61 62
157 88 61 43 54 51 52 57 61 62 71 79 85 75 67 56 50 47 38 37 25 31 31 24 17 21 27 30 28 40 39 35 36 45 46 46 48 51 55 48 50 50 52 61
88 126 110 60 63 64 68 68 68 63 64 68 75 63 64 58 53 49 43 34 36 39 34 23 17 21 17 16 28 47 47 38 37 41 44 59 60 51 59 58 59 55 49 56
176 88 97 73 84 83 76 75 76 79 73 67 73 72 67 58 49 46 43 38 39 33 31 23 21 21 13 10 22 42 50 46 40 40 39 46 61 62 56 63 63 63 64 76
120 94 102 100 90 84 84 77 76 82 85 87 78 80 70 66 58 57 47 46 43 36 26 27 29 27 14 9 30 38 42 44 39 47 45 46 49 56 68 51 52 55 66 71
128 118 112 145 125 110 103 95 92 85 79 79 81 78 81 78 67 59 47 48 43 38 33 23 26 24 4 7 40 49 55 58 64 63 65 67 60 59 64 67 66 49 42 53
164 58 113 111 106 107 108 113 103 92 90 79 70 75 70 66 54 43 33 50 49 41 30 27 26 13 3 12 41 46 48 56 76 74 75 74 73 71 71 71 68 61 49 47
118 115 132 131 132 130 126 119 114 117 104 100 98 89 90 91 83 65 54 47 58 45 26 27 24 3 5 18 35 42 44 48 64 78 73 67 62 67 70 75 71 63 54 40
136 135 129 143 145 144 130 118 115 118 110 103 104 111 107 100 86 64 48 47 55 49 30 24 9 2 12 19 31 38 45 45 59 75 77 74 75 77 75 81 81 74 65 57
149 132 147 149 144 137 127 110 110 107 109 110 110 104 101 95 91 65 33 27 40 42 30 11 1 11 16 15 22 29 43 51 55 65 79 86 87 89 91 99 97 94 85 73
103 113 113 114 121 125 126 125 116 115 116 118 110 105 100 86 70 61 37 47 37 29 7 360 4 14 15 11 21 32 41 47 50 51 64 81 99 104 110 109 111 110 104 98
96 98 104 105 105 122 126 121 119 108 98 114 115 111 99 79 69 68 55 46 22 340 330 356 9 14 10 12 23 32 38 43 43 40 43 64 104 128 121 125 129 133 130 129
117 116 115 115 109 103 108 122 125 118 112 122 131 128 113 32 9 10 45 28 13 18 11 17 20 13 10 10 21 32 37 39 41 39 45 52 89 124 152 155 155 163 165 165
127 122 119 118 116 112 105 112 113 117 119 115 111 119 109 36 20 18 279 335 344 11 23 24 15 7 7 17 23 26 27 29 32 36 38 34 31 41 162 184 195 194 199 205
128 127 127 129 130 127 114 110 122 132 128 129 128 139 66 353 339 359 5 4 280 325 335 345 358 5 9 22 20 14 12 12 17 16 7 353 340 326 317 311 274 235 232 226
133 134 132 130 126 122 118 124 130 153 201 246 257 244 273 334 322 262 256 280 263 311 319 314 316 330 345 343 344 337 329 311 299 298 303 312 308 301 291 286 288 277 261 254
142 137 135 140 139 134 137 159 171 208 240 271 288 287 260 231 234 262 319 276 272 291 302 306 307 305 296 294 295 299 301 302 286 277 276 281 277 263 266 269 269 274 272 262
151 154 161 171 166 183 195 186 217 307 283 291 322 2 348 302 253 257 265 293 287 286 290 299 306 306 300 291 284 280 280 282 278 278 276 274 270 267 265 268 269 268 262 258
146 150 162 185 225 207 180 185 185 274 190 146 316 340 335 337 330 286 276 299 309 309 308 308 311 309 305 299 291 281 278 277 272 270 271 274 272 265 264 267 269 268 268 266